Location: Edinburgh
(55.9500°N, 3.1600°W)
Time: 00:51:08
(UTC+00:00)

Envisat - Visible Passes

Search period start: 21 February 2024 00:00
Search period end: 02 March 2024 00:00
Orbit: 762 x 764 km, 98.3° (Epoch: 20 February)

Date Brightness Start Highest point End Pass type
(mag) Time Alt. Az. Time Alt. Az. Time Alt. Az.
21 Feb 5.1 02:41:01 10° NE 02:44:05 22° ENE 02:44:05 22° ENE visible
21 Feb 2.9 04:19:28 10° NNE 04:24:16 69° NW 04:24:16 69° NW visible
21 Feb 4.5 05:59:27 10° N 06:02:46 18° NW 06:04:26 15° WNW visible
22 Feb 5.7 02:05:05 10° ENE 02:06:30 12° ENE 02:06:30 12° ENE visible
22 Feb 3.4 03:42:09 10° NNE 03:46:40 59° ENE 03:46:40 59° ENE visible
22 Feb 3.9 05:21:36 10° N 05:25:55 29° WNW 05:26:50 27° WNW visible
23 Feb 4.5 03:05:05 10° NNE 03:09:04 33° ENE 03:09:04 33° ENE visible
23 Feb 3.2 04:44:00 10° N 04:48:53 49° WNW 04:49:15 48° W visible
23 Feb 4.8 06:24:30 10° NNW 06:26:48 13° NW 06:29:05 10° WNW visible
24 Feb 5.3 02:28:25 10° NE 02:31:28 19° ENE 02:31:28 19° ENE visible
24 Feb 2.8 04:06:33 10° NNE 04:11:38 87° NW 04:11:38 87° NW visible
24 Feb 4.3 05:46:20 10° N 05:50:03 21° NW 05:51:49 17° WNW visible
25 Feb 3.7 03:29:19 10° NNE 03:34:03 51° E 03:34:03 51° E visible
25 Feb 3.7 05:08:35 10° N 05:13:08 34° WNW 05:14:13 31° W visible
26 Feb 4.7 02:52:20 10° NNE 02:56:28 28° E 02:56:28 28° E visible
26 Feb 3.0 04:31:02 10° N 04:36:02 59° WNW 04:36:38 55° W visible
26 Feb 4.7 06:11:14 10° NNW 06:14:06 15° NW 06:16:48 11° W visible
27 Feb 5.4 02:15:57 10° NE 02:18:52 15° E 02:18:52 15° E visible
27 Feb 3.0 03:53:39 10° NNE 03:58:46 77° ESE 03:59:02 75° SE visible
27 Feb 4.2 05:33:15 10° N 05:37:18 24° NW 05:39:12 20° W visible
28 Feb 4.0 03:16:29 10° NNE 03:21:19 42° E 03:21:26 42° E visible
28 Feb 3.5 04:55:35 10° N 05:00:20 41° WNW 05:01:37 34° W visible
29 Feb 4.9 02:39:38 10° NE 02:43:40 23° E 02:43:51 23° E visible
29 Feb 2.9 04:18:05 10° NNE 04:23:10 72° WNW 04:24:01 59° SW visible
29 Feb 4.5 05:58:03 10° N 06:01:24 18° NW 06:04:11 12° W visible
01 Mar 5.6 02:03:44 10° ENE 02:05:48 12° E 02:06:15 12° E visible
01 Mar 3.3 03:40:46 10° NNE 03:45:50 63° ESE 03:46:26 58° SE visible
01 Mar 3.9 05:20:12 10° N 05:24:32 29° WNW 05:26:36 22° W visible
